Printer-friendly version

IAU Minor Planet Center

Minor Planet Center

MPEC 2005-R37 : 2005 RW3

The following Minor Planet Electronic Circular may be linked-to from your own Web pages, but must not otherwise be redistributed electronically.


Read MPEC 2005-R36 Read MPEC 2005-R38


M.P.E.C. 2005-R37                                Issued 2005 Sept. 7, 15:38 UT

     The Minor Planet Electronic Circulars contain information on unusual
         minor planets and routine data on comets.  They are published
   on behalf of Commission 20 of the International Astronomical Union by the
          Minor Planet Center, Smithsonian Astrophysical Observatory,
                          Cambridge, MA 02138, U.S.A.

                  Supported in part by the Brinson Foundation
             Prepared using the Tamkin Foundation Computer Network

                              MPC@CFA.HARVARD.EDU
          URL http://cfa-www.harvard.edu/iau/mpc.html  ISSN 1523-6714

                                   2005 RW3

Observations:
     K05R03W* C2005 09 06.53777 01 00 37.69 -28 27 50.6          19.0 V ER037E12
     K05R03W  C2005 09 06.55123 01 00 27.57 -28 26 03.2          19.0 V ER037E12
     K05R03W  C2005 09 06.56469 01 00 17.42 -28 24 16.9          19.1 V ER037E12
     K05R03W  C2005 09 06.57830 01 00 07.16 -28 22 29.1          18.8 V ER037E12
     K05R03W  C2005 09 06.58605 01 00 01.33 -28 21 26.8          19.0 V ER037E12
     K05R03W  C2005 09 06.60015 00 59 50.74 -28 19 36.2          18.5 V ER037E12
     K05R03W  C2005 09 06.61414 00 59 40.16 -28 17 44.2          19.1 V ER037E12
     K05R03W  C2005 09 06.62837 00 59 29.47 -28 15 50.2          18.2 V ER037E12
     K05R03W  C2005 09 06.67080 00 58 57.72 -28 10 14.0          19.2 V ER037E12
     K05R03W  C2005 09 06.67194 00 58 56.89 -28 10 04.7          19.0 V ER037E12
     K05R03W  C2005 09 06.67310 00 58 56.06 -28 09 56.1          19.1 V ER037E12
     K05R03W  C2005 09 06.67434 00 58 55.10 -28 09 46.7                 ER037E12
     K05R03W  C2005 09 07.52553 00 49 51.24 -26 23 32.6          19.3 V ER037E12
     K05R03W  C2005 09 07.52720 00 49 50.12 -26 23 21.8          19.3 V ER037E12
     K05R03W  C2005 09 07.52888 00 49 49.18 -26 23 10.0          18.5 V ER037E12
     K05R03W  C2005 09 07.53054 00 49 48.10 -26 22 58.2          18.9 V ER037E12
     K05R03W  C2005 09 07.53265 00 49 46.80 -26 22 44.4          18.8 V ER037E12
     K05R03W  C2005 09 07.54785 00 49 37.49 -26 20 59.3          19.2 V ER037E12

Observer details:
E12 Siding Spring Survey.  Observers G. J. Garradd, R. H. McNaught.  Measurers
    E. C. Beshore, C. M. Casey, E. J. Christensen, G. J. Garradd, A. D. Grauer,
    R. E. Hill, S. M. Larson, R. H. McNaught.  0.5-m Uppsala Schmidt + CCD.

Orbital elements:
2005 RW3
Epoch 2005 Sept. 7.0 TT = JDT 2453620.5                 MPC
M  16.49780              (2000.0)            P               Q
n   0.31683968     Peri.  218.68640     -0.03007982     +0.99888490
a   2.1309651      Node    49.62105     -0.90478081     -0.01173741
e   0.6466591      Incl.    2.73797     -0.42481394     -0.04572942
P   3.11           H   22.6           G   0.15
From 18 observations 2005 Sept. 6-7.

Ephemeris:
2005 RW3                 a,e,i = 2.13, 0.65, 3                   q = 0.7530
Date    TT    R. A. (2000) Decl.     Delta      r     Elong.  Phase     V
2005 09 07    00 55.24   -27 27.8    0.0919   1.085   145.8    31.5    18.9
2005 09 12    00 19.51   -19 54.2    0.136    1.134   158.8    18.8    19.5
2005 09 17    00 02.42   -15 47.4    0.184    1.184   165.3    12.4    20.0
2005 09 22    23 52.60   -13 12.8    0.235    1.234   167.1    10.4    20.6
2005 09 27    23 46.49   -11 24.9    0.289    1.284   165.3    11.4    21.1
2005 10 02    23 42.69   -10 02.9    0.346    1.333   161.6    13.7    21.7
2005 10 07    23 40.53   -08 56.2    0.406    1.383   157.4    16.1    22.2

Kyle E. Smalley              (C) Copyright 2005 MPC           M.P.E.C. 2005-R37

Read MPEC 2005-R36 Read MPEC 2005-R38


Our Web policy. Index to the CBAT/MPC/ICQ pages.


Valid HTML 4.01!